Location: Follega
(52.8850°N, 5.7362°E)
Time: 00:44:45
(UTC+00:00)

STARLINK-1206 - Pass Details

Date: 01 June 2020
Orbit: 548 x 550 km, 53.0° (Epoch: 15 July)

Event Time Altitude Azimuth Distance (km) Brightness Sun altitude
Rises 22:46:49 0° 284° (WNW) 2,726 7.5 -14.2°
Reaches altitude 10° 22:49:04 10° 281° (W) 1,831 6.6 -14.2°
Maximum altitude 22:53:10 61° 202° (SSW) 627 3.6 -14.3°
Enters shadow 22:56:37 14° 123° (ESE) 1,575 5.6 -14.4°
